This is the latest recevied weather packets stored in our database for station/object N9OJR. If no packets are shown the sender has not sent any weather packets the latest 10 day(s).
| Time | Temp. | Humidity | Pressure | Rain* | Wind** | Luminosity | Snow |
|---|---|---|---|---|---|---|---|
| 1777770436 | 3.89° C | 80% | 1013.3 hPa | 0 mm | - | 0 W/m² | - |
| 1777770133 | 3.89° C | 79% | 1013.4 hPa | 0 mm | - | 0 W/m² | - |
| 1777769831 | 3.89° C | 79% | 1013.4 hPa | 0 mm | - | 0 W/m² | - |
| 1777769528 | 4.44° C | 78% | 1013.4 hPa | 0 mm | - | 0 W/m² | - |
| 1777769224 | 4.44° C | 77% | 1013.4 hPa | 0 mm | - | 0 W/m² | - |
| 1777768923 | 4.44° C | 76% | 1013.4 hPa | 0 mm | - | 0 W/m² | - |
| 1777768619 | 4.44° C | 78% | 1013.3 hPa | 0 mm | - | 0 W/m² | - |
| 1777768316 | 4.44° C | 78% | 1013.4 hPa | 0 mm | - | 0 W/m² | - |
| 1777768013 | 4.44° C | 78% | 1013.7 hPa | 0 mm | - | 0 W/m² | - |
| 1777767710 | 5° C | 76% | 1013.3 hPa | 0 mm | - | 0 W/m² | - |
| 1777767406 | 5° C | 75% | 1013.5 hPa | 0 mm | - | 0 W/m² | - |
| 1777767103 | 5° C | 73% | 1013.4 hPa | 0 mm | - | 0 W/m² | - |
| 1777766801 | 5° C | 73% | 1013.2 hPa | 0 mm | - | 0 W/m² | - |
| 1777766498 | 5° C | 73% | 1013.3 hPa | 0 mm | - | 2 W/m² | - |
| 1777766194 | 5° C | 72% | 1013.3 hPa | 0 mm | - | 2 W/m² | - |
| 1777765893 | 5° C | 71% | 1013.4 hPa | 0 mm | - | 3 W/m² | - |
| 1777765588 | 5° C | 72% | 1013.4 hPa | 0 mm | - | 6 W/m² | - |
| 1777765286 | 5° C | 72% | 1013.2 hPa | 0 mm | - | 9 W/m² | - |
| 1777764981 | 5.56° C | 73% | 1013.1 hPa | 0 mm | - | 14 W/m² | - |
| 1777764678 | 5.56° C | 72% | 1013.1 hPa | 0 mm | - | 16 W/m² | - |
| 1777764374 | 5.56° C | 69% | 1013.1 hPa | 0 mm | - | 18 W/m² | - |
| 1777764072 | 5.56° C | 70% | 1013.2 hPa | 0 mm | - | 21 W/m² | - |
| 1777763768 | 5.56° C | 70% | 1013.3 hPa | 0 mm | - | 30 W/m² | - |
| 1777763466 | 5.56° C | 70% | 1013.4 hPa | 0 mm | - | 42 W/m² | - |
| 1777763164 | 5.56° C | 70% | 1013.4 hPa | 0 mm | - | 48 W/m² | - |
* Rain latest hour (hover to see other rain measurements)
** Current wind speed in m/s (hover to see current wind gust speed)